This demonstration page uses our WeatherBlox Daily Observations layout. Learn more.

39.08367, -84.50855

Hourly Observations for August 11, 2019

Temp ( °F °C ) Dew Point ( °F °C ) Humidity (%) Winds ( mph kmh ) Pressure ( in mb ) Visibility ( mi km ) Precip ( " mm )
12:53 am 00:53 Clear 62 16.7 59 15 90 90 Calm 30 1016 10 16.09344 0 0
1:53 am 01:53 Clear 61 16.1 60 15.6 97 97 Calm 30.03 1017 10 16.09344 0 0
2:53 am 02:53 Clear 59 15 58 14.4 96 96 Calm 30.03 1017 10 16.09344 0 0
3:53 am 03:53 Clear 60 15.6 59 15 96 96 Calm 30.03 1017 10 16.09344 0 0
4:53 am 04:53 Clear 60 15.6 59 15 96 96 Calm 30.03 1017 10 16.09344 0 0
5:53 am 05:53 Clear 59 15 58 14.4 96 96 NE 5 7 30.03 1017 10 16.09344 0 0
6:12 am 06:12 Mostly Clear 59 15 58 14.4 96 96 NE 3 6 30.03 1017 10 16.09344 0 0
6:53 am 06:53 Mostly Sunny 59 15 58 14.4 96 96 ENE 3 6 30.06 1018 10 16.09344 0 0
7:53 am 07:53 Mostly Sunny 62 16.7 60 15.6 93 93 Calm 30.06 1018 10 16.09344 0 0
8:53 am 08:53 Mostly Sunny 68 20 61 16.1 78 78 Calm 30.06 1018 10 16.09344 0 0
9:53 am 09:53 Sunny 72 22.2 63 17.2 73 73 Calm 30.06 1018 9 14.484096 0 0
10:53 am 10:53 Sunny 77 25 62 16.7 60 60 VRB 3 6 30.06 1018 10 16.09344 0 0
11:53 am 11:53 Sunny 81 27.2 60 15.6 49 49 S 9 15 30.06 1018 10 16.09344 0 0
12:53 pm 12:53 Sunny 82 27.8 58 14.4 44 44 E 7 11 30.06 1018 10 16.09344 0 0
1:53 pm 13:53 Mostly Sunny 84 28.9 59 15 43 43 VRB 3 6 30.06 1018 10 16.09344 0 0
2:53 pm 14:53 Mostly Sunny 84 28.9 61 16.1 46 46 SE 5 7 30.03 1017 10 16.09344 0 0
3:53 pm 15:53 Sunny 85 29.4 60 15.6 43 43 S 7 11 30 1016 10 16.09344 0 0
4:53 pm 16:53 Sunny 84 28.9 57 13.9 40 40 VRB 5 7 30 1016 10 16.09344 0 0
5:53 pm 17:53 Sunny 83 28.3 59 15 44 44 S 3 6 30 1016 10 16.09344 0 0
6:53 pm 18:53 Sunny 81 27.2 63 17.2 54 54 S 5 7 29.97 1015 10 16.09344 0 0
7:53 pm 19:53 Sunny 75 23.9 68 20 79 79 S 5 7 29.97 1015 10 16.09344 0 0
8:53 pm 20:53 Clear 73 22.8 64 17.8 74 74 Calm 29.97 1015 10 16.09344 0 0
9:53 pm 21:53 Clear 69 20.6 65 18.3 87 87 SW 3 6 29.97 1015 10 16.09344 0 0
10:53 pm 22:53 Clear 68 20 65 18.3 90 90 Calm 29.97 1015 10 16.09344 0 0
11:53 pm 23:53 Clear 66 18.9 64 17.8 93 93 Calm 29.97 1015 10 16.09344 0 0

Powered by AerisWeather